FIN8AZ EFRO-EETN

Flight info

Callsign FIN8AZ
Flight time 1h 10m
Altitude 37000
Route RENVI DCT DOBAN
Aircraft A320/M-SDE3FGHIRWY/LB1

Departure

Time 2026-05-05 16:02
Airport Rovaniemi Airport (EFRO)

Arrival

Time 2026-05-05 17:12
Airport Lennart Meri Tallinn Airport (EETN)
Time Latitude Longitude Altitude Speed Heading
2026-05-05 15:36 66.55921 25.83050 647 ft 0 kts 168°
2026-05-05 15:54 66.55926 25.83048 647 ft 2 kts 168°
2026-05-05 15:55 66.55942 25.83039 648 ft 2 kts 168°
2026-05-05 15:55 66.55958 25.83031 647 ft 2 kts 168°
2026-05-05 15:55 66.55974 25.83023 649 ft 2 kts 168°
2026-05-05 15:55 66.55987 25.83024 648 ft 0 kts 259°
2026-05-05 15:58 66.55978 25.82907 647 ft 14 kts 259°
2026-05-05 15:58 66.55957 25.82639 648 ft 17 kts 257°
2026-05-05 15:59 66.55877 25.82431 649 ft 18 kts 218°
2026-05-05 15:59 66.55776 25.82231 651 ft 19 kts 218°
2026-05-05 15:59 66.55664 25.82016 651 ft 21 kts 217°
2026-05-05 15:59 66.55543 25.81784 652 ft 23 kts 213°
2026-05-05 16:00 66.55412 25.81538 654 ft 24 kts 218°
2026-05-05 16:00 66.55340 25.81341 655 ft 12 kts 256°
2026-05-05 16:00 66.55370 25.81150 658 ft 13 kts 316°
2026-05-05 16:00 66.55429 25.81045 660 ft 9 kts 359°
2026-05-05 16:01 66.55484 25.81137 657 ft 12 kts 36°
2026-05-05 16:01 66.55673 25.81494 653 ft 70 kts 37°
2026-05-05 16:01 66.56245 25.82575 645 ft 133 kts 36°
2026-05-05 16:01 66.57125 25.84173 773 ft 168 kts 33°
2026-05-05 16:02 66.57744 25.85308 1284 ft 166 kts 36°
2026-05-05 16:02 66.58652 25.87076 2104 ft 165 kts 37°
2026-05-05 16:02 66.59553 25.88838 2853 ft 164 kts 37°
2026-05-05 16:02 66.60455 25.90598 3487 ft 165 kts 38°
2026-05-05 16:03 66.61284 25.92634 3987 ft 176 kts 60°
2026-05-05 16:03 66.61487 25.95804 4276 ft 200 kts 102°
2026-05-05 16:03 66.60735 25.99011 4547 ft 228 kts 126°
2026-05-05 16:03 66.59726 26.02273 5105 ft 242 kts 126°
2026-05-05 16:04 66.58663 26.05654 5896 ft 250 kts 131°
2026-05-05 16:04 66.57166 26.07890 6683 ft 258 kts 165°
2026-05-05 16:04 66.55348 26.08058 7294 ft 274 kts 190°
2026-05-05 16:04 66.53529 26.06334 7921 ft 284 kts 207°
2026-05-05 16:05 66.51737 26.04123 8769 ft 289 kts 207°
2026-05-05 16:05 66.49930 26.01952 9548 ft 295 kts 206°
2026-05-05 16:05 66.48006 25.99714 9930 ft 316 kts 205°
2026-05-05 16:05 66.45911 25.97301 10231 ft 338 kts 205°
2026-05-05 16:06 66.43715 25.94797 10576 ft 356 kts 205°
2026-05-05 16:06 66.41440 25.92220 10863 ft 373 kts 205°
2026-05-05 16:06 66.39046 25.89427 11310 ft 384 kts 206°
2026-05-05 16:06 66.36615 25.86559 11989 ft 387 kts 206°
2026-05-05 16:07 66.34188 25.83653 12786 ft 388 kts 207°
2026-05-05 16:07 66.31737 25.80732 13424 ft 393 kts 206°
2026-05-05 16:07 66.29250 25.77839 14041 ft 396 kts 205°
2026-05-05 16:07 66.26741 25.74963 14639 ft 399 kts 206°
2026-05-05 16:08 66.24198 25.72060 15251 ft 402 kts 205°
2026-05-05 16:08 66.21647 25.69148 15831 ft 406 kts 205°
2026-05-05 16:08 66.19066 25.66201 16435 ft 409 kts 205°
2026-05-05 16:08 66.16469 25.63241 16994 ft 412 kts 205°
2026-05-05 16:09 66.13851 25.60265 17587 ft 414 kts 205°
2026-05-05 16:09 66.11252 25.57315 18046 ft 418 kts 205°
2026-05-05 16:09 66.08553 25.54573 18472 ft 423 kts 198°
2026-05-05 16:09 66.05685 25.52848 18901 ft 425 kts 188°
2026-05-05 16:10 66.02742 25.52112 19354 ft 428 kts 183°
2026-05-05 16:10 65.99768 25.51501 19859 ft 428 kts 184°
2026-05-05 16:10 65.96792 25.50880 20303 ft 430 kts 184°
2026-05-05 16:10 65.93811 25.50249 20773 ft 432 kts 184°
2026-05-05 16:11 65.90810 25.49607 21187 ft 433 kts 184°
2026-05-05 16:11 65.81747 25.47680 22380 ft 439 kts 183°
2026-05-05 16:12 65.78694 25.47039 22770 ft 440 kts 183°
2026-05-05 16:12 65.72563 25.45768 23425 ft 443 kts 184°
2026-05-05 16:13 65.63288 25.43849 24247 ft 448 kts 184°
2026-05-05 16:13 65.60181 25.43204 24508 ft 449 kts 185°
2026-05-05 16:13 65.57057 25.42554 24756 ft 451 kts 185°
2026-05-05 16:14 65.50829 25.41260 25228 ft 453 kts 185°
2026-05-05 16:14 65.44532 25.39978 25663 ft 455 kts 186°
2026-05-05 16:15 65.38227 25.38721 26232 ft 453 kts 187°
2026-05-05 16:15 65.31937 25.37457 26770 ft 453 kts 187°
2026-05-05 16:16 65.25651 25.36199 27340 ft 453 kts 187°
2026-05-05 16:16 65.19370 25.34932 27960 ft 452 kts 187°
2026-05-05 16:17 65.13103 25.33672 28599 ft 451 kts 188°
2026-05-05 16:17 65.09976 25.33054 28920 ft 451 kts 188°
2026-05-05 16:18 65.03741 25.31827 29573 ft 449 kts 188°
2026-05-05 16:18 65.00622 25.31221 29830 ft 448 kts 188°
2026-05-05 16:18 64.94412 25.29995 30314 ft 448 kts 189°
2026-05-05 16:19 64.91306 25.29376 30531 ft 447 kts 189°
2026-05-05 16:19 64.88201 25.28765 30800 ft 447 kts 189°
2026-05-05 16:19 64.82008 25.27563 31304 ft 447 kts 189°
2026-05-05 16:20 64.75804 25.26364 31800 ft 447 kts 189°
2026-05-05 16:20 64.69657 25.25193 32297 ft 445 kts 189°
2026-05-05 16:21 64.63471 25.24015 32807 ft 445 kts 189°
2026-05-05 16:22 64.54211 25.22226 33567 ft 445 kts 189°
2026-05-05 16:22 64.48039 25.21051 33986 ft 445 kts 189°
2026-05-05 16:23 64.41857 25.19885 34391 ft 445 kts 189°
2026-05-05 16:23 64.38766 25.19303 34565 ft 445 kts 189°
2026-05-05 16:23 64.32586 25.18146 34933 ft 445 kts 189°
2026-05-05 16:24 64.29499 25.17569 35104 ft 445 kts 189°
2026-05-05 16:24 64.26403 25.16991 35262 ft 446 kts 189°
2026-05-05 16:24 64.20223 25.15833 35580 ft 446 kts 189°
2026-05-05 16:25 64.17131 25.15262 35733 ft 446 kts 189°
2026-05-05 16:25 64.10987 25.14140 36013 ft 446 kts 189°
2026-05-05 16:25 64.07891 25.13569 36138 ft 446 kts 189°
2026-05-05 16:26 64.01703 25.12416 36398 ft 445 kts 189°
2026-05-05 16:26 63.95533 25.11294 36613 ft 446 kts 189°
2026-05-05 16:27 63.89321 25.10157 36621 ft 449 kts 189°
2026-05-05 16:27 63.83087 25.09023 36621 ft 449 kts 189°
2026-05-05 16:28 63.76853 25.07897 36627 ft 449 kts 189°
2026-05-05 16:28 63.70672 25.06802 36626 ft 448 kts 189°
2026-05-05 16:29 63.64444 25.05687 36645 ft 449 kts 189°
2026-05-05 16:29 63.58210 25.04577 36653 ft 449 kts 189°
2026-05-05 16:30 63.51977 25.03478 36666 ft 449 kts 189°
2026-05-05 16:30 63.45751 25.02391 36667 ft 449 kts 189°
2026-05-05 16:31 63.39526 25.01299 36654 ft 449 kts 190°
2026-05-05 16:31 63.33306 25.00199 36666 ft 448 kts 190°
2026-05-05 16:32 63.27082 24.99103 36680 ft 448 kts 189°
2026-05-05 16:32 63.20867 24.98037 36682 ft 448 kts 189°
2026-05-05 16:33 63.14693 24.96990 36677 ft 447 kts 189°
2026-05-05 16:33 63.08502 24.95928 36655 ft 446 kts 190°
2026-05-05 16:34 63.02323 24.94862 36687 ft 444 kts 190°
2026-05-05 16:34 62.96157 24.93802 36694 ft 444 kts 190°
2026-05-05 16:35 62.90007 24.92760 36698 ft 443 kts 189°
2026-05-05 16:35 62.83863 24.91727 36696 ft 442 kts 190°
2026-05-05 16:36 62.77725 24.90684 36695 ft 442 kts 190°
2026-05-05 16:36 62.71597 24.89654 36693 ft 441 kts 190°
2026-05-05 16:37 62.65471 24.88630 36701 ft 441 kts 190°
2026-05-05 16:37 62.59336 24.87620 36707 ft 441 kts 190°
2026-05-05 16:38 62.53249 24.86614 36703 ft 442 kts 190°
2026-05-05 16:38 62.47123 24.85602 36701 ft 441 kts 190°
2026-05-05 16:39 62.40996 24.84590 36708 ft 441 kts 190°
2026-05-05 16:39 62.34877 24.83590 36666 ft 441 kts 190°
2026-05-05 16:40 62.28775 24.82596 36696 ft 439 kts 190°
2026-05-05 16:40 62.22686 24.81616 36717 ft 439 kts 190°
2026-05-05 16:41 62.16600 24.80639 36721 ft 438 kts 190°
2026-05-05 16:41 62.10524 24.79657 36699 ft 437 kts 191°
2026-05-05 16:42 62.04453 24.78678 36711 ft 437 kts 191°
2026-05-05 16:42 61.98393 24.77707 36724 ft 436 kts 191°
2026-05-05 16:43 61.92343 24.76746 36725 ft 436 kts 191°
2026-05-05 16:43 61.86287 24.75787 36732 ft 436 kts 191°
2026-05-05 16:44 61.80223 24.74846 36703 ft 437 kts 191°
2026-05-05 16:44 61.74163 24.73903 36729 ft 436 kts 191°
2026-05-05 16:45 61.68145 24.72950 36736 ft 437 kts 191°
2026-05-05 16:45 61.62087 24.71997 36750 ft 437 kts 191°
2026-05-05 16:46 61.56025 24.71070 36751 ft 437 kts 191°
2026-05-05 16:46 61.49958 24.70143 36720 ft 437 kts 191°
2026-05-05 16:47 61.43888 24.69206 36720 ft 437 kts 191°
2026-05-05 16:47 61.37815 24.68256 36741 ft 437 kts 191°
2026-05-05 16:48 61.32768 24.67480 36757 ft 437 kts 191°
2026-05-05 16:48 61.26700 24.66550 36761 ft 437 kts 191°
2026-05-05 16:49 61.20631 24.65636 36767 ft 437 kts 191°
2026-05-05 16:49 61.14559 24.64715 36729 ft 437 kts 191°
2026-05-05 16:50 61.08492 24.63810 36749 ft 437 kts 191°
2026-05-05 16:50 61.02458 24.62910 36755 ft 436 kts 191°
2026-05-05 16:51 60.96402 24.61999 36776 ft 436 kts 191°
2026-05-05 16:51 60.90337 24.61091 36773 ft 436 kts 191°
2026-05-05 16:52 60.84289 24.60190 36750 ft 436 kts 191°
2026-05-05 16:52 60.78275 24.59313 36761 ft 435 kts 191°
2026-05-05 16:53 60.72240 24.58430 36774 ft 435 kts 191°
2026-05-05 16:53 60.66205 24.57544 36745 ft 435 kts 191°
2026-05-05 16:54 60.60174 24.56663 36077 ft 434 kts 192°
2026-05-05 16:54 60.57159 24.56225 35291 ft 432 kts 192°
2026-05-05 16:54 60.54158 24.55784 34422 ft 431 kts 193°
2026-05-05 16:55 60.51185 24.55346 33635 ft 428 kts 193°
2026-05-05 16:55 60.48216 24.54913 32700 ft 426 kts 193°
2026-05-05 16:55 60.45263 24.54487 31780 ft 424 kts 193°
2026-05-05 16:55 60.42320 24.54071 30828 ft 424 kts 193°
2026-05-05 16:56 60.39378 24.53657 29915 ft 422 kts 194°
2026-05-05 16:56 60.36444 24.53235 28778 ft 422 kts 194°
2026-05-05 16:56 60.33550 24.52815 27718 ft 421 kts 194°
2026-05-05 16:56 60.30636 24.52395 26675 ft 420 kts 194°
2026-05-05 16:57 60.27719 24.51974 25589 ft 420 kts 193°
2026-05-05 16:57 60.24803 24.51551 24453 ft 421 kts 193°
2026-05-05 16:57 60.21882 24.51127 23394 ft 421 kts 193°
2026-05-05 16:57 60.18953 24.50769 22172 ft 425 kts 189°
2026-05-05 16:58 60.15958 24.51616 20952 ft 447 kts 173°
2026-05-05 16:58 60.13062 24.54246 19843 ft 464 kts 160°
2026-05-05 16:58 60.10267 24.57394 19084 ft 456 kts 160°
2026-05-05 16:58 60.07527 24.60509 18303 ft 450 kts 160°
2026-05-05 16:59 60.04844 24.63568 17004 ft 438 kts 159°
2026-05-05 16:59 60.02217 24.66540 15526 ft 430 kts 159°
2026-05-05 16:59 59.99635 24.69428 14184 ft 424 kts 159°
2026-05-05 16:59 59.97047 24.72281 13399 ft 422 kts 159°
2026-05-05 17:00 59.94497 24.75089 12690 ft 415 kts 159°
2026-05-05 17:00 59.91987 24.77852 11942 ft 410 kts 158°
2026-05-05 17:00 59.89503 24.80586 11291 ft 403 kts 158°
2026-05-05 17:00 59.87121 24.83217 10929 ft 389 kts 158°
2026-05-05 17:01 59.84807 24.85780 10678 ft 373 kts 158°
2026-05-05 17:01 59.82586 24.88236 10429 ft 358 kts 158°
2026-05-05 17:01 59.80446 24.90595 10187 ft 345 kts 159°
2026-05-05 17:01 59.78380 24.92867 9947 ft 333 kts 159°
2026-05-05 17:02 59.76396 24.95042 9812 ft 319 kts 159°
2026-05-05 17:02 59.74489 24.97129 9686 ft 306 kts 159°
2026-05-05 17:02 59.72658 24.99130 9552 ft 294 kts 159°
2026-05-05 17:02 59.70890 25.01057 9386 ft 288 kts 160°
2026-05-05 17:03 59.69133 25.02958 9250 ft 286 kts 160°
2026-05-05 17:03 59.67386 25.04840 9112 ft 287 kts 160°
2026-05-05 17:03 59.65652 25.06715 8975 ft 279 kts 159°
2026-05-05 17:03 59.63943 25.08569 8459 ft 283 kts 159°
2026-05-05 17:04 59.62209 25.10427 7999 ft 284 kts 159°
2026-05-05 17:04 59.60465 25.12289 7516 ft 286 kts 158°
2026-05-05 17:04 59.58708 25.14156 7053 ft 287 kts 158°
2026-05-05 17:04 59.56951 25.16015 6606 ft 286 kts 157°
2026-05-05 17:05 59.55215 25.17874 6210 ft 284 kts 156°
2026-05-05 17:05 59.53466 25.19790 5597 ft 289 kts 155°
2026-05-05 17:05 59.51659 25.21496 4983 ft 287 kts 169°
2026-05-05 17:05 59.49748 25.21631 4176 ft 266 kts 198°
2026-05-05 17:06 59.48081 25.20527 3677 ft 239 kts 203°
2026-05-05 17:06 59.46585 25.19582 3426 ft 212 kts 201°
2026-05-05 17:06 59.45243 25.18803 3258 ft 192 kts 201°
2026-05-05 17:06 59.43986 25.18065 3138 ft 187 kts 203°
2026-05-05 17:07 59.42810 25.17120 3039 ft 177 kts 218°
2026-05-05 17:07 59.41977 25.15574 3100 ft 157 kts 236°
2026-05-05 17:07 59.41436 25.13722 2874 ft 157 kts 251°
2026-05-05 17:07 59.41208 25.11665 2665 ft 153 kts 269°
2026-05-05 17:08 59.41217 25.09608 2471 ft 149 kts 272°
2026-05-05 17:08 59.41233 25.07582 2301 ft 151 kts 271°
2026-05-05 17:08 59.41236 25.05499 2129 ft 153 kts 270°
2026-05-05 17:08 59.41236 25.03389 1898 ft 157 kts 271°
2026-05-05 17:09 59.41258 25.01242 1624 ft 156 kts 272°
2026-05-05 17:09 59.41303 24.99196 1418 ft 142 kts 273°
2026-05-05 17:09 59.41335 24.97333 1191 ft 132 kts 274°
2026-05-05 17:09 59.41332 24.95518 997 ft 134 kts 268°
2026-05-05 17:10 59.41307 24.93651 857 ft 136 kts 270°
2026-05-05 17:10 59.41304 24.91819 665 ft 131 kts 271°
2026-05-05 17:10 59.41309 24.90060 510 ft 129 kts 271°
2026-05-05 17:10 59.41314 24.88276 404 ft 130 kts 271°
2026-05-05 17:11 59.41315 24.86518 229 ft 127 kts 272°
2026-05-05 17:11 59.41324 24.84825 142 ft 114 kts 271°
2026-05-05 17:11 59.41325 24.83492 141 ft 84 kts 270°
2026-05-05 17:11 59.41324 24.82459 137 ft 68 kts 270°
2026-05-05 17:12 59.41329 24.81626 140 ft 55 kts 270°
2026-05-05 17:12 59.41331 24.80986 136 ft 34 kts 269°
2026-05-05 17:12 59.41348 24.80668 136 ft 18 kts 299°
2026-05-05 17:12 59.41423 24.80525 138 ft 13 kts 321°
2026-05-05 17:13 59.41498 24.80458 138 ft 10 kts 346°
2026-05-05 17:13 59.41530 24.80354 138 ft 10 kts 272°
2026-05-05 17:13 59.41527 24.80220 138 ft 1 kts 272°
2026-05-05 17:13 59.41528 24.80189 138 ft 4 kts 272°
2026-05-05 17:14 59.41530 24.80124 138 ft 6 kts 272°
2026-05-05 17:14 59.41557 24.80063 138 ft 8 kts 349°
2026-05-05 17:14 59.41584 24.80063 138 ft 3 kts
2026-05-05 17:14 59.41593 24.80063 138 ft 0 kts